Location: Berry Creek
(51.8849°N, 111.7341°W)
Time: 10:39:50
(UTC-06:00)

Daily predictions for brighter satellites

Satellite Brightness Start Highest point End
(mag) Time Altitude Azimuth Time Altitude Azimuth Time Altitude Azimuth
NOSS 2-1 (C) 3.6 21:07:47 10° SSW 21:11:16 44° SE 21:15:19 10° NE
Cosmos 1300 4.0 21:07:57 10° SSW 21:11:39 45° WNW 21:15:22 10° N
NOSS 2-1 (D) 3.5 21:08:43 10° SSW 21:12:15 46° SE 21:16:19 10° NE
ARGOS 3.8 21:08:14 10° SE 21:13:08 38° ENE 21:18:04 10° N
ATLAS 2AS CENTAUR R/B 3.2 21:06:01 10° NW 21:14:03 75° SW 21:21:29 10° SSE
Spot 2 Rocket 3.5 21:09:31 10° SSE 21:14:37 79° ENE 21:19:44 10° NNW
Lacrosse 5 2.8 21:10:01 10° WNW 21:14:55 47° N 21:19:50 10° ENE
Cosmos 1809 Rocket 4.5 21:10:02 10° S 21:16:12 84° E 21:22:26 10° NNE
NOSS 7 (D) 4.2 21:17:38 10° SW 21:20:53 90° WNW 21:24:09 10° NE
Nadezhda 3 Rocket 4.3 21:15:38 10° NNW 21:21:55 74° W 21:28:14 10° S
Cosmos 1633 Rocket 3.4 21:17:40 10° NNW 21:22:00 70° W 21:26:20 10° S
NOSS 7 (E) 4.5 21:19:10 10° SW 21:22:09 69° NW 21:25:23 10° NE
SPOT 5 4.3 21:19:42 10° ESE 21:23:02 20° ENE 21:26:17 10° NNE
Cosmos 2297 4.3 21:21:29 10° NNW 21:26:55 44° NE 21:32:07 11° ESE
Cosmos 2360 Rocket 3.1 21:21:55 10° SW 21:27:27 55° NW 21:32:59 10° NNE
Cosmos 1980 4.3 21:23:29 10° S 21:28:34 35° ESE 21:33:40 10° NE
Cosmos 1408 2.6 21:28:25 10° N 21:32:04 63° ENE 21:35:42 10° SSE
Meteor 2-14 Rocket 4.5 21:27:54 10° S 21:34:01 86° E 21:40:12 10° NNE
Cosmos 2369 Rocket 4.0 21:30:39 10° NNW 21:34:49 20° NNE 21:38:56 10° ENE
Cosmos 1455 2.1 21:31:36 10° S 21:35:26 79° E 21:39:19 10° NNE
Meteor 1-27 4.2 21:30:26 10° S 21:36:08 74° E 21:41:47 10° NNE
Cosmos 1892 4.1 21:32:57 10° NNW 21:36:39 41° W 21:40:18 10° SSW
Cosmos 2333 Rocket 2.2 21:31:34 10° SSW 21:37:06 59° ESE 21:42:40 10° NE
ERS-2 4.3 21:34:09 10° SSW 21:37:16 26° W 21:40:24 10° NW
Cosmos 1515 Rocket 3.7 21:33:42 10° S 21:38:03 55° E 21:42:25 10° NNE
Cosmos 2228 Rocket 3.2 21:33:54 10° S 21:38:11 54° E 21:42:29 10° NNE
Helios 1A 4.1 21:35:50 13° ESE 21:38:58 29° ENE 21:42:36 10° N
Cosmos 1844 Rocket 4.3 21:34:27 10° NW 21:39:25 32° WSW 21:44:22 10° SSW
COSMOS 2428 2.8 21:36:35 10° SSW 21:42:20 86° WNW 21:48:06 10° NNE
NOSS 2-1 (E) 3.2 21:38:52 10° SW 21:42:34 74° SE 21:47:03 10° NE
Meteor 2-16 Rocket 4.4 21:37:24 10° S 21:43:32 84° E 21:49:42 10° NNE
NOSS 3-4 (A) 3.9 21:37:38 10° NW 21:44:31 76° NE 21:51:01 14° SE
NOSS 3-4 (C) 3.9 21:37:45 10° NW 21:44:37 76° NE 21:51:06 14° SE
Cosmos 2333 4.3 21:39:02 10° SSW 21:44:41 80° WNW 21:50:21 10° NNE
Cosmos 44 4.2 21:41:22 10° WSW 21:45:51 52° NW 21:50:40 10° NE
Cosmos 1862 4.2 21:43:30 10° N 21:47:12 32° ENE 21:49:47 17° SE
Cosmos 407 Rocket 3.7 21:42:07 10° NNW 21:47:12 57° ENE 21:51:21 15° SE
USA 245 3.6 21:48:38 19° ESE 21:49:31 23° ENE 21:51:28 10° NNE
H-2A R/B 2.1 21:48:27 13° SE 21:52:53 58° ENE 21:57:45 10° N
ERS-1 Rocket 3.2 21:50:13 14° SE 21:54:26 56° ENE 21:59:22 10° N
Cosmos 2219 Rocket 2.2 21:49:43 10° SSW 21:55:24 87° ESE 22:01:05 10° NNE
NOSS 3-3 (A) 4.0 21:49:54 10° SSW 21:56:00 70° SE 22:02:48 10° NE
Cosmos 2237 Rocket 2.3 21:50:40 10° S 21:56:03 50° ESE 22:01:30 10° NE
NOSS 3-3 (C) 4.0 21:50:01 10° SSW 21:56:06 70° SE 22:02:54 10° NE
Cosmos 1328 Rocket 3.9 21:53:33 10° SSW 21:57:58 71° WNW 22:02:26 10° N
USA 267 4.3 21:53:30 10° ENE 21:58:10 20° SE 22:02:48 10° S
MetOp-A 4.1 21:53:47 11° SSE 21:59:00 82° ENE 22:04:23 10° NNW
Cosmos 2278 Rocket 2.7 21:54:18 10° NW 21:59:52 58° WSW 22:05:25 10° S
Cosmos 1371 Rocket 4.4 21:55:26 10° S 22:00:24 42° ESE 22:05:27 10° NE
Resurs 01 Rocket 3.3 21:57:18 10° SSW 22:01:18 32° W 22:05:18 10° NNW
Cosmos 1470 Rocket 4.4 21:59:56 10° NNW 22:04:11 49° W 22:08:27 10° S
Cosmos 405 Rocket 3.9 22:03:13 21° ESE 22:04:26 24° E 22:07:38 10° NE
Cosmos 676 Rocket 4.3 22:00:57 10° NNW 22:06:09 54° ENE 22:09:38 20° SE
SL-08 RB Rocket 3.6 22:02:53 16° SSE 22:06:27 74° ENE 22:10:56 10° N
ATLAS 5 CENTAUR R/B 3.4 22:02:00 10° NW 22:07:01 35° NNE 22:12:38 10° E
Cosmos 44 Rocket 4.3 22:04:50 10° WSW 22:09:31 49° NW 22:14:24 10° NE
Cosmos 1727 Rocket 3.9 22:04:38 10° N 22:10:52 79° E 22:16:20 14° SSE
ATLAS CENTAUR R/B 1.0 22:07:40 10° SSW 22:11:22 67° SE 22:15:16 10° NE
Cosmos 1959 Rocket 4.4 22:10:54 10° S 22:17:04 84° E 22:23:13 10° N
Cosmos 1825 3.2 22:14:02 10° NNW 22:17:41 45° W 22:21:19 10° SSW
Cosmos 405 2.9 22:16:32 10° NNW 22:20:05 84° W 22:22:04 24° S
Cosmos 2056 Rocket 3.8 22:16:45 10° S 22:21:58 50° ESE 22:27:11 10° NNE
Cosmos 2098 Rocket 2.8 22:20:29 10° S 22:25:03 84° E 22:28:42 10° N
Landsat 7 4.1 22:25:42 26° SE 22:28:10 52° ENE 22:32:48 10° N
Cosmos 2218 Rocket 4.2 22:25:52 10° SSW 22:32:14 78° W 22:38:42 10° N
Cosmos 1933 4.1 22:33:07 31° ESE 22:33:57 35° E 22:37:41 10° NNE
USA 234 3.4 22:30:25 16° ESE 22:35:45 74° NNE 22:42:18 10° WNW
Spot 1 4.5 22:33:54 28° SE 22:36:24 62° ENE 22:41:03 10° N
Cosmos 1190 Rocket 4.4 22:32:22 10° NNW 22:37:37 61° WSW 22:41:05 21° S
Cosmos 1624 Rocket 3.9 22:33:56 10° SSW 22:39:06 70° ESE 22:44:18 10° NNE
NOSS 0 Rocket 4.1 22:33:10 10° SW 22:39:21 79° WNW 22:45:37 10° NNE
Cosmos 1633 3.9 22:37:30 10° NNE 22:40:29 24° ENE 22:40:51 23° E
Cosmos 1869 4.0 22:38:50 10° SSW 22:42:47 56° WNW 22:46:46 10° N
Cosmos 1140 Rocket 3.4 22:39:00 10° NNW 22:44:15 86° ENE 22:46:47 31° SSE
GEOS 3 Rocket 3.9 22:39:20 10° NE 22:44:33 47° SE 22:49:38 10° SSW
Cosmos 2366 rocket 4.3 22:38:48 10° SSW 22:45:00 71° WNW 22:51:20 10° N
SL-16 R/B 2.3 22:41:17 17° S 22:45:32 51° ESE 22:51:01 10° NE
Meteor 1-4 Rocket 3.9 22:42:43 10° N 22:45:40 24° ENE 22:45:56 24° ENE
Terra 2.1 22:43:59 32° SE 22:45:54 52° ENE 22:50:33 10° N
Cosmos 1954 Rocket 4.0 22:45:46 10° NNW 22:51:02 84° WSW 22:53:30 32° SSE
Cosmos 1943 Rocket 3.2 22:46:55 10° NNW 22:51:59 35° NE 22:54:52 21° E
Cosmos 1707 Rocket 3.4 22:50:42 35° SSE 22:52:23 67° E 22:56:42 10° NNE
ARGOS 4.2 22:48:40 12° SSW 22:53:23 40° W 22:58:27 10° NNW
Cosmos 1241 Rocket 4.5 22:47:50 10° NW 22:54:10 82° NE 22:57:25 31° SE
Helios 1B rocket 2.5 22:51:03 10° NNE 22:55:08 56° ESE 22:56:07 43° SSE
Cosmos 1869 Rocket 4.1 22:50:51 10° NNW 22:55:09 54° W 22:57:35 24° SSW
SeaSat 1 4.4 22:52:13 11° E 22:55:35 20° NE 22:59:09 10° N
CZ-2C R/B 3.5 22:55:28 32° ESE 22:57:02 43° ENE 23:01:36 10° N
CZ-4C R/B 3.5 22:58:25 22° E 22:58:25 22° E 23:01:51 10° ENE
Lacrosse 5 2.1 22:53:23 10° WNW 22:58:28 67° NNE 23:01:09 28° E
Meteor 1-14 Rocket 4.5 22:53:02 10° N 22:58:29 53° ENE 23:00:37 34° SE
YAOGAN 11 4.2 22:58:13 42° SE 22:59:25 60° ENE 23:03:41 10° N
SPOT 5 2.9 22:58:33 29° S 23:00:46 64° WSW 23:05:12 10° NNW
Meteor 1-29 3.1 23:04:02 10° NNE 23:07:06 54° ENE 23:07:06 54° ENE
Cosmos 1733 Rocket 3.0 23:03:06 10° N 23:07:32 68° ENE 23:08:32 49° SE
DMSP B5D2-2 4.0 23:04:17 10° NNE 23:09:34 86° ESE 23:12:36 26° SSW
CARTOSAT-1 3.5 23:08:49 47° SSE 23:10:02 89° ENE 23:14:23 10° NNW
Cosmos 1606 4.3 23:11:42 23° ENE 23:11:42 23° ENE 23:14:13 10° NE
Cosmos 1441 Rocket 3.5 23:09:54 31° SW 23:11:29 61° WNW 23:15:13 10° N
Cosmos 1603 4.5 23:12:31 31° ESE 23:12:33 31° ESE 23:17:26 10° NE
Cosmos 389 Rocket 4.2 23:11:22 10° NNE 23:13:51 21° ENE 23:13:51 21° ENE
Helios 1A 4.2 23:12:28 23° SSW 23:14:26 37° W 23:18:22 10° NNW
Cosmos 2344 3.8 23:08:24 15° S 23:14:32 51° ESE 23:22:47 10° NE
Meteor 2-10 Rocket 4.5 23:09:26 10° SSW 23:15:03 54° WNW 23:20:48 10° N
Cosmos 2369 Rocket 2.4 23:14:18 10° NNW 23:20:00 65° NE 23:22:03 39° ESE
GENESIS II 4.2 23:16:46 10° NW 23:20:44 72° NE 23:21:12 63° E
Cosmos 2333 Rocket 3.9 23:16:34 10° WSW 23:21:42 34° NW 23:26:51 10° NNE
RESURS DK-1 2.9 23:18:52 10° NNW 23:22:56 48° NE 23:23:37 43° E
BREEZE M DEB (TANK) 3.5 23:10:06 10° WSW 23:23:42 72° S 23:25:52 33° E
SPOT 1/Viking Rocket 4.3 23:21:27 26° SSW 23:24:02 48° W 23:29:07 10° NNW
SAR-Lupe-4 3.8 23:25:02 56° ENE 23:25:02 56° ENE 23:28:28 10° N
Cosmos 1420 Rocket 4.1 23:25:28 47° SSE 23:26:43 59° ESE 23:31:58 10° NNE
Meteor 1-25 Rocket 4.2 23:21:10 10° NNW 23:26:59 81° ENE 23:28:53 44° SSE
SAR-Lupe-1 4.4 23:27:37 52° ENE 23:27:37 52° ENE 23:31:00 10° N
Cosmos 2242 Rocket 3.5 23:27:42 60° SE 23:28:06 64° E 23:32:29 10° NNE
Cosmos 1461 4.2 23:24:58 10° NW 23:29:31 40° NE 23:31:20 28° E
SL-8 R/B 4.3 23:25:35 10° WSW 23:28:58 38° SSW 23:28:58 38° SSW
Cosmos 1437 Rocket 2.9 23:28:51 10° NNW 23:32:40 61° W 23:33:02 57° SW
H-2A R/B 3.8 23:29:05 12° SW 23:32:40 24° W 23:36:40 10° NW
Meteor 1-26 Rocket 4.1 23:33:20 45° S 23:35:03 75° E 23:40:38 10° NNE
CZ-2C R/B 3.0 23:34:06 10° NNE 23:39:12 44° E 23:39:42 43° ESE
Cosmos 2219 Rocket 4.4 23:35:27 10° W 23:40:05 25° NW 23:44:45 10° NNE
Cosmos 2237 Rocket 3.6 23:35:05 10° WSW 23:40:19 38° NW 23:45:35 10° NNE
Cosmos 405 Rocket 4.2 23:38:21 21° WSW 23:40:19 34° WNW 23:43:58 10° N
Cosmos 1934 Rocket 3.8 23:39:15 39° S 23:41:41 87° E 23:47:47 10° N
USA 267 3.2 23:35:39 10° ENE 23:42:08 60° SE 23:48:35 10° SW
IGS 5A 4.2 23:41:25 39° SW 23:42:12 44° W 23:46:15 10° NNW
ATLAS CENTAUR R/B 3.5 23:47:28 10° W 23:50:42 26° NNW 23:54:07 10° NNE
ATLAS 5 CENTAUR R/B 2.3 23:46:36 10° NW 23:52:21 89° SSW 23:54:11 49° SE
